Voltar ao catálogo

STARLINK-33636

AtivoComunicaçõesVLEO
NORAD 63379·PAYLOAD·🇺🇸 United States

Lançado Mar 26, 2025 de Vandenberg Space Force Base

Loading…

Próximas Passagens (próximas 24 horas)

TLE

AtualizadoSource: CelesTrak SupGP

Época: Sep 14, 2026, 22:57 UTC

1 63379C 25063S   26257.95673611  .00080327  00000+0  12265-2 0  2578
2 63379  53.1538 242.1474 0008998  35.1145 349.3019 15.53729237    16

Acompanhe STARLINK-33636 em tempo real com AllMySat

Download on the App Store